SCP
0 0 -0 0 0 0 0 0 0 -0 0 0 0 0 0 0 0 0 0 -0 0 0 0 0 0 0 0 0 -0 0 -0 -0 -0 -0 -0 -0 -0 -0 -0 -0 -0 -0 -0 -0 -0 -0 -0 -0 -0
0 0 0 0 0 0 0 0 -0 0 -0 0 0 0 0 0 0 0 0 -0 -0 0 0 0 0 0 0 0 0 0 -0 -0 -0 -0 -0 -0 -0 -0 -0 -0 0 -0 -0 -0 -0 -0 -0 -0 -0
0 0 0 0 0 0 0 -0 -0 0 0 -0 0 0 0 0 0 0 -0 0 -0 0 0 0 0 0 0 0 0 0 -0 -0 -0 -0 -0 -0 -0 0 -0 -0 -0 -0 -0 -0 -0 -0 -0 -0 -0
0 0 0 0 0 0 0 0 0 0 0 -0 -0 0 0 0 0 0 -0 -0 0 0 0 0 0 0 0 0 0 0 0 0 -0 -0 -0 -0 -0 -0 -0 -0 -0 -0 -0 -0 -0 -0 -0 -0 -0
0 0 0 0 0 0 0 0 0 0 -0 -0 0 -0 0 0 0 -0 0 -0 0 0 0 0 0 0 0 0 0 0 0 0 0 0 -0 -0 -0 -0 -0 -0 0 0 -0 0 -0 -0 -0 -0 -0
0 0 0 0 0 0 0 0 0 0 0 -0 -0 0 0 0 -0 0 0 -0 -0 0 0 0 0 0 0 0 0 0 0 0 -0 -0 -0 -0 -0 -0 -0 -0 -0 -0 -0 -0 -0 -0 -0 -0 0
0 0 0 0 0 0 0 0 0 0 0 0 -0 0 0 -0 -0 0 0 -0 -0 0 0 -0 -0 0 0 0 0 0 0 0 0 -0 -0 -0 -0 -0 -0 -0 -0 -0 -0 -0 -0 -0 0 0 0
0 0 0 0 0 0 0 0 0 0 0 0 0 -0 -0 -0 -0 0 0 -0 -0 -0 0 -0 -0 -0 0 0 0 0 0 0 -0 0 0 0 -0 -0 -0 -0 -0 -0 -0 -0 0 0 0 0 0
0 0 0 0 0 0 0 0 0 0 0 0 0 0 0 0 0 0 0 0 0 0 -0 -0 -0 -0 0 0 0 0 0 0 0 0 0 0 0 0 0 -0 0 -0 0 0 0 0 0 0 0
0 0 0 0 0 0 0 0 0 0 0 0 0 0 0 0 0 0 0 -0 -0 -0 -0 -0 -0 -0 -0 0 -0 -0 0 0 0 0 0 0 0 0 0 0 -0 -0 0 -0 -0 0 0 0 0
0 0 0 0 0 0 0 0 0 0 0 0 0 0 0 0 0 0 0 0 -0 -0 -0 -0 -0 -0 -0 -0 0 0 0 0 0 0 0 0 -0 0 0 0 0 0 -0 0 0 0 0 0 0
0 0 0 0 0 0 0 0 0 0 0 0 0 0 0 0 0 0 0 0 0 -0 -0 -0 -0 -0 -0 -0 -0 -0 -0 -0 -0 -0 -0 -0 0 0 -0 -0 0 0 0 0 0 0 0 0 0
0 0 0 0 0 0 0 0 0 0 0 0 0 0 0 0 0 0 0 0 0 0 -0 -0 -0 -0 -0 -0 -0 -0 -0 -0 -0 -0 -0 -0 -0 -0 0 0 0 0 0 0 0 0 0 0 0
0 0 0 0 0 0 0 0 0 0 0 0 0 0 0 0 0 0 0 0 0 0 -0 -0 -0 -0 -0 -0 -0 -0 -0 -0 -0 0 0 0 0 0 0 0 0 0 0 0 0 0 0 0 0
0 0 0 0 0 0 0 0 0 0 0 0 0 0 0 0 0 0 0 0 0 0 0 0 -0 -0 -0 -0 -0 -0 0 0 0 0 0 0 0 0 0 0 0 0 0 0 0 0 0 0 0
0 0 0 0 0 0 0 0 0 0 0 0 0 0 0 0 0 0 0 0 0 0 0 0 0 0 0 0 0 0 0 0 0 0 0 0 0 0 0 0 0 0 0 0 0 0 0 0 0
0 0 0 0 0 0 0 0 0 0 0 0 0 0 0 0 0 0 0 0 0 0 0 0 0 0 0 0 0 0 0 0 0 0 0 0 0 0 0 0 0 0 0 0 0 0 0 0 0
0 0 0 0 0 0 0 0 0 0 0 0 0 0 0 0 0 0 0 0 0 0 0 0 0 0 0 0 0 0 0 0 0 0 0 0 0 0 0 0 0 0 0 0 0 0 0 0 0
0 0 0 0 0 0 0 0 0 0 0 0 0 0 0 0 0 0 0 0 0 0 0 0 0 0 0 0 0 0 0 0 0 0 0 0 0 0 0 0 0 0 0 0 0 0 0 0 0
0 0 0 0 0 0 0 0 0 0 0 0 0 0 0 0 0 0 0 0 0 0 0 0 0 0 0 0 0 0 0 0 0 0 0 0 0 0 0 0 0 0 0 0 0 0 0 0 0
0 0 0 0 0 0 0 0 0 0 0 0 0 0 0 0 0 0 0 0 0 0 0 0 0 0 0 0 0 0 0 0 0 0 0 0 0 0 0 0 0 0 0 0 0 0 0 0 0
0 0 0 0 0 0 0 0 0 0 0 0 0 0 0 0 0 0 0 0 0 0 0 0 0 0 0 0 0 0 0 0 0 0 0 0 0 0 0 0 0 0 0 0 0 0 0 0 0
0 0 0 0 0 0 0 0 -0 -0 0 0 0 0 0 0 0 0 0 0 0 0 0 0 0 0 0 0 0 0 0 0 0 0 0 0 0 0 0 0 0 0 0 0 0 0 0 0 0
0 0 0 0 0 0 0 0 0 0 0 0 0 0 0 0 0 0 0 0 0 0 0 0 0 0 0 0 0 0 0 0 0 0 0 0 0 0 0 0 0 0 0 0 0 0 0 0 0
0 0 0 0 0 0 0 0 0 0 0 0 0 0 0 0 0 0 0 0 0 0 0 0 0 0 0 0 0 0 0 0 0 0 0 0 0 0 0 0 0 0 0 0 0 0 0 0 0
0 0 0 0 0 0 0 0 0 0 0 0 0 0 0 0 0 0 0 0 0 0 0 0 0 0 0 0 0 0 0 0 0 0 0 0 0 0 0 0 0 0 0 0 0 0 0 0 0
0 0 0 0 0 0 0 0 0 0 0 0 0 0 -0 0 0 0 0 0 0 0 0 0 0 0 0 0 0 0 0 0 0 0 0 0 0 0 0 0 0 0 0 0 0 0 0 0 0
0 0 0 0 0 0 0 0 0 0 0 0 0 0 0 0 0 0 0 0 0 0 0 0 0 0 0 0 0 0 0 0 0 0 0 0 0 0 0 0 0 0 0 0 0 0 0 0 0
0 0 0 0 0 0 0 0 -0 -0 0 0 0 0 -0 -0 0 0 0 0 0 0 0 0 0 0 0 0 0 0 0 0 0 0 0 0 0 0 0 0 0 0 0 0 0 0 0 0 0
0 0 0 0 0 0 0 0 0 0 0 0 0 0 0 0 0 0 0 0 0 0 0 0 0 0 0 0 0 0 0 0 0 0 0 0 0 0 0 0 0 0 0 0 0 0 0 0 0
Wind_Speed_500mb
15 14 16 8 8 8 3 2 2 6 3 4 22 11 11 7 5 4 37 36 37 27 26 23 17 16 20 25 31 27 18 20 20 22 22 23 25 28 26 22 15 20 32 31 28 25 29 28 27
17 13 10 5 8 6 5 3 7 5 10 27 25 22 7 3 8 29 43 42 36 26 26 24 19 18 23 26 33 29 23 27 26 26 27 28 33 35 29 22 22 21 31 29 27 26 28 32 35
16 12 5 8 6 6 5 7 8 15 24 6 8 11 7 10 21 49 41 45 35 28 26 26 22 21 24 27 27 26 28 31 33 32 30 27 26 25 32 28 28 27 28 29 25 28 33 35 34
9 4 9 7 5 4 6 6 14 23 5 5 16 15 10 11 45 30 47 43 35 28 27 28 23 23 25 27 27 27 28 29 30 29 30 28 25 24 23 24 28 30 24 29 26 29 34 32 33
6 4 7 6 4 4 5 5 41 10 5 10 5 8 14 44 24 34 47 40 33 29 28 29 24 24 26 26 27 27 27 28 29 28 28 28 27 24 23 24 23 24 23 26 26 25 26 28 31
4 5 6 3 6 4 4 22 18 9 11 10 11 22 19 23 30 43 45 40 32 26 28 30 26 24 24 25 25 25 26 27 27 26 26 26 26 25 24 22 22 21 22 24 24 22 22 25 27
4 5 6 6 4 5 8 26 16 14 14 7 26 13 14 30 37 44 43 39 34 28 27 29 29 25 23 21 22 23 24 24 24 24 23 23 23 22 21 20 21 20 21 23 21 20 20 22 24
6 8 4 4 5 4 13 16 11 18 10 14 21 9 13 42 46 48 46 41 34 32 28 27 30 28 24 24 20 19 19 20 20 20 19 20 18 18 18 17 17 18 17 20 18 17 17 18 19
18 5 5 7 8 5 17 12 12 12 17 18 18 7 16 46 51 52 53 48 44 38 35 30 29 30 27 23 22 19 17 16 16 16 16 16 16 15 14 15 15 14 15 14 13 12 12 14 16
9 8 15 10 8 6 17 13 24 12 14 13 19 16 23 51 57 59 62 58 53 48 41 37 30 29 29 25 21 19 17 14 13 13 13 14 14 13 12 11 12 11 11 10 8 8 10 10 12
8 11 9 7 13 8 6 14 21 20 6 30 39 33 39 57 58 59 60 59 54 50 45 39 36 30 28 27 23 20 18 14 12 10 10 11 11 12 12 11 10 9 8 6 5 6 8 8 8
7 11 8 4 9 2 3 3 16 32 26 20 29 33 43 59 63 64 63 59 56 52 47 43 40 35 30 28 25 20 17 15 12 9 8 7 7 8 9 9 8 7 6 5 3 2 5 5 5
7 5 25 18 9 5 8 15 13 34 37 13 33 35 45 55 62 63 62 57 56 56 51 46 42 39 34 30 28 24 20 17 15 13 10 8 6 6 6 6 6 5 4 3 3 2 3 3 4
18 10 3 5 10 11 7 4 4 16 39 26 32 41 48 52 58 62 64 61 59 56 53 48 45 40 37 34 30 27 24 21 20 18 16 14 12 10 7 6 5 4 3 3 4 3 4 4 4
11 7 7 6 3 5 7 5 11 27 25 31 34 42 49 56 58 58 58 60 56 51 48 48 44 42 41 37 33 31 28 27 26 23 22 20 19 17 14 12 9 9 8 7 6 6 6 6 6
8 9 3 2 17 2 10 11 23 22 21 33 36 44 50 55 56 56 53 56 54 49 46 45 45 42 41 39 37 35 34 33 32 31 30 28 25 25 25 19 14 15 14 14 13 12 10 10 10
12 7 9 7 11 10 10 7 7 15 27 36 41 45 50 53 58 56 53 52 52 50 48 48 46 44 41 39 38 36 35 35 34 35 35 33 29 28 22 19 18 20 19 18 18 16 15 12 13
13 8 2 6 5 1 5 13 15 13 30 39 36 43 52 57 58 52 51 50 50 52 49 49 49 45 43 40 40 41 41 38 33 34 35 33 31 26 27 26 24 24 22 21 20 19 18 18 19
14 8 8 3 6 2 10 13 22 26 20 31 44 45 54 61 55 54 52 50 51 54 57 57 56 52 50 49 48 47 48 43 41 41 35 33 34 35 33 30 29 29 26 23 22 19 18 19 20
9 8 3 8 2 6 8 17 20 18 22 46 45 53 56 62 60 59 57 55 56 52 59 60 60 58 57 55 51 49 44 45 44 43 40 30 40 38 38 38 37 37 36 33 30 29 26 26 28
6 9 8 7 4 2 7 22 18 15 27 57 52 48 53 66 66 66 63 61 59 57 60 60 61 60 59 58 57 57 58 57 54 51 44 44 39 35 38 44 44 44 43 40 35 34 33 33 32
12 11 10 8 6 8 1 14 13 20 28 18 55 62 62 55 70 70 65 64 65 62 57 60 60 61 62 59 62 61 62 60 55 50 47 44 31 31 30 38 44 45 45 43 41 37 39 42 44
11 14 11 8 6 1 2 6 13 13 27 25 45 61 64 69 60 73 72 66 65 60 61 63 65 65 66 65 66 63 62 58 51 46 43 43 39 37 34 38 39 42 43 42 42 43 46 45 40
21 14 11 8 5 9 14 13 11 14 20 14 27 64 71 69 65 64 68 69 67 65 65 65 70 70 71 70 69 70 67 62 57 52 49 43 43 42 40 36 37 37 41 44 43 41 41 35 34
8 15 4 2 2 16 8 11 38 15 11 17 29 62 70 71 68 71 74 76 72 74 71 65 66 68 68 72 72 69 68 67 60 57 54 47 47 50 40 43 38 35 35 39 38 37 35 34 33
11 13 10 14 9 6 3 17 13 20 42 49 47 38 35 48 54 64 72 77 79 73 70 64 63 63 64 65 67 67 65 65 65 61 56 50 52 48 38 40 34 33 32 31 31 29 29 29 28
12 22 15 8 5 5 10 15 19 18 21 25 39 53 53 42 39 40 48 56 59 72 69 64 59 58 58 58 59 59 61 63 64 59 53 52 53 51 45 34 36 33 33 31 30 31 31 27 24
18 19 8 3 5 8 9 11 14 10 15 21 18 30 43 50 47 39 35 36 41 51 57 57 56 53 52 54 56 57 59 60 60 57 56 51 50 50 47 37 37 33 33 31 34 37 34 26 27
10 14 6 12 10 9 2 11 15 17 9 12 20 29 30 28 39 43 34 32 39 46 49 49 47 47 50 53 54 55 55 54 53 50 46 40 44 44 42 35 36 34 34 34 36 39 21 22 26
11 16 16 10 4 3 6 15 10 7 4 13 28 28 26 25 28 33 34 34 35 38 40 38 40 43 47 48 48 45 43 41 42 43 42 43 42 41 36 35 33 33 32 29 28 24 23 24 22
Wind_Direction_500mb
326 333 339 351 55 63 99 199 317 127 145 192 141 143 156 94 161 169 146 156 153 146 140 139 123 100 101 102 106 97 98 111 127 136 137 128 104 91 92 97 100 90 90 92 88 84 77 72 69
320 327 332 67 84 74 273 237 189 190 127 123 111 112 85 112 137 145 148 154 151 144 141 140 126 107 106 108 109 113 96 96 101 105 128 131 122 106 100 92 81 94 89 91 82 75 75 71 68
316 327 343 86 108 150 191 192 156 136 135 158 118 99 103 127 140 146 150 147 146 147 145 140 129 115 112 109 112 103 89 90 94 97 100 109 127 130 124 116 103 95 94 96 87 86 81 70 64
317 317 57 80 151 200 191 177 147 147 223 168 134 82 100 147 141 152 151 146 143 148 148 143 135 123 115 109 105 95 90 89 91 96 101 103 102 103 105 107 108 108 104 100 92 80 71 62 59
287 41 59 79 262 242 230 196 155 152 136 141 198 134 111 139 147 161 156 150 148 152 156 146 144 132 121 111 105 100 97 94 94 96 97 93 92 93 95 96 99 107 100 102 94 86 73 66 61
70 82 69 177 253 250 263 166 153 140 145 149 133 119 144 159 158 161 162 153 153 158 161 152 150 139 130 120 112 106 100 96 92 93 96 95 94 92 94 97 103 104 99 106 98 90 77 70 65
85 70 177 172 261 297 171 166 167 150 151 166 149 123 166 172 162 165 165 159 159 165 170 164 155 152 143 131 118 113 107 99 95 93 95 94 93 94 96 100 109 110 102 106 96 83 74 69 65
292 83 94 230 232 262 154 167 193 157 177 153 169 170 178 175 166 168 170 168 169 171 175 175 166 163 158 147 137 125 115 105 99 96 93 93 94 98 98 97 100 102 101 102 96 85 76 72 68
188 94 224 220 175 227 164 170 170 165 152 164 190 179 175 174 169 173 176 181 176 181 178 182 180 172 169 164 154 145 134 121 108 102 102 100 96 98 101 106 109 109 108 103 93 79 70 67 66
146 160 204 207 203 241 179 191 167 155 163 193 194 184 172 178 179 182 185 186 184 183 183 182 188 183 178 176 173 162 155 142 126 113 110 105 98 99 109 113 114 118 121 118 104 71 48 49 57
158 175 191 225 221 202 231 187 178 153 211 208 203 190 177 183 188 192 195 195 192 185 185 188 186 192 189 186 187 183 173 165 152 134 119 117 107 99 110 121 126 126 134 127 99 61 37 39 43
127 226 171 338 207 155 230 271 192 197 217 227 221 209 186 190 197 200 201 201 198 196 191 191 191 192 197 196 196 198 193 185 179 169 154 138 130 115 106 113 123 132 141 149 142 49 15 20 31
151 200 212 229 232 248 278 256 260 230 218 219 204 211 206 200 204 205 207 205 203 202 199 198 199 197 199 205 205 206 209 206 205 204 201 201 192 171 150 128 120 126 143 170 204 240 322 343 352
186 197 185 206 259 244 218 293 144 270 222 212 206 213 213 211 212 208 208 209 208 206 205 204 205 207 207 210 215 217 218 219 224 225 224 225 228 227 221 204 185 188 196 211 231 252 291 315 314
163 175 13 226 201 241 186 299 227 260 223 210 203 209 214 214 214 216 215 214 214 212 212 211 212 214 216 218 221 226 230 232 232 235 239 240 242 242 243 242 239 243 250 255 263 272 286 299 304
122 82 202 220 170 175 152 259 265 238 232 229 213 211 216 218 221 218 219 219 220 217 217 217 218 220 223 225 228 231 234 239 241 241 242 243 244 247 248 246 250 260 262 266 270 274 282 290 295
12 165 195 291 217 131 159 239 254 213 219 238 232 222 219 220 221 220 223 222 222 222 219 222 221 225 227 228 230 233 235 240 241 243 246 246 244 254 245 253 261 265 262 268 271 275 282 292 299
176 166 84 214 227 142 195 240 265 225 217 234 243 233 225 225 225 223 224 228 227 227 226 227 229 228 229 230 233 233 231 234 238 243 244 244 252 248 247 253 260 265 269 270 278 285 285 292 295
128 115 142 234 5 149 234 249 250 240 245 240 243 240 234 232 230 227 226 228 231 229 226 226 229 228 228 228 229 232 235 233 236 239 241 241 241 246 252 256 255 263 271 276 270 273 279 288 291
103 121 220 298 154 175 318 265 256 250 238 243 248 241 242 238 231 229 227 228 230 230 231 229 230 231 232 234 233 238 244 244 242 244 246 250 246 249 253 255 259 263 268 269 274 274 277 278 283
101 139 158 223 329 258 306 270 244 259 239 249 246 252 244 248 240 233 229 229 232 232 232 232 232 231 230 233 236 239 244 245 243 243 243 248 248 246 247 258 259 262 263 265 267 267 270 272 272
163 173 129 149 139 235 72 281 258 239 237 216 240 242 245 247 248 243 238 232 232 235 236 236 235 233 232 231 236 238 244 246 248 248 247 251 255 250 251 243 257 260 262 263 264 266 267 269 270
185 148 127 112 123 103 276 305 258 235 235 238 230 233 246 244 245 246 242 237 238 239 237 237 235 235 234 232 236 240 242 244 245 250 248 244 248 251 253 248 248 251 257 259 259 259 264 267 270
145 104 67 73 80 265 202 193 241 211 222 230 232 237 237 245 247 249 250 247 243 239 237 235 232 233 235 235 237 242 244 245 243 242 244 239 251 257 262 264 256 247 254 258 260 260 266 270 273
152 142 58 241 212 234 300 214 253 260 253 219 222 236 233 234 240 248 251 249 245 243 239 235 232 230 232 235 237 241 243 246 247 248 246 244 249 252 256 262 261 260 253 255 258 260 266 271 275
178 166 160 188 198 240 94 229 252 245 260 251 259 253 240 237 243 245 249 251 246 240 238 237 231 228 230 233 236 239 240 245 248 248 247 243 236 248 251 255 260 250 250 248 250 254 262 264 262
188 209 152 80 14 70 216 285 294 260 273 260 250 249 254 247 243 249 250 252 246 233 231 232 228 226 229 232 233 236 241 244 249 250 245 239 229 235 241 244 247 244 245 246 245 248 247 250 253
183 145 123 92 225 250 263 270 241 327 258 262 278 267 266 261 252 250 248 239 228 221 221 222 222 225 228 230 232 236 242 247 251 249 242 227 226 230 240 234 246 241 242 243 250 247 244 241 249
125 182 185 148 179 185 290 260 216 248 358 315 293 287 279 257 246 241 231 216 214 215 215 217 219 223 227 233 237 241 246 247 244 237 225 218 220 225 221 235 240 241 245 243 248 221 231 244 241
188 173 177 174 215 223 132 257 207 190 277 284 285 297 284 251 236 220 209 200 205 213 216 219 223 227 232 237 242 244 237 229 223 217 207 208 215 208 228 229 234 238 229 226 224 244 244 241 236
Wind_Speed_850mb
15 14 16 8 8 8 3 2 2 6 3 4 22 11 11 7 5 4 37 36 37 27 26 23 17 16 20 25 31 27 18 20 20 22 22 23 25 28 26 22 15 20 32 31 28 25 29 28 27
17 13 10 5 8 6 5 3 7 5 10 27 25 22 7 3 8 29 43 42 36 26 26 24 19 18 23 26 33 29 23 27 26 26 27 28 33 35 29 22 22 21 31 29 27 26 28 32 35
16 12 5 8 6 6 5 7 8 15 24 6 8 11 7 10 21 49 41 45 35 28 26 26 22 21 24 27 27 26 28 31 33 32 30 27 26 25 32 28 28 27 28 29 25 28 33 35 34
9 4 9 7 5 4 6 6 14 23 5 5 16 15 10 11 45 30 47 43 35 28 27 28 23 23 25 27 27 27 28 29 30 29 30 28 25 24 23 24 28 30 24 29 26 29 34 32 33
6 4 7 6 4 4 5 5 41 10 5 10 5 8 14 44 24 34 47 40 33 29 28 29 24 24 26 26 27 27 27 28 29 28 28 28 27 24 23 24 23 24 23 26 26 25 26 28 31
4 5 6 3 6 4 4 22 18 9 11 10 11 22 19 23 30 43 45 40 32 26 28 30 26 24 24 25 25 25 26 27 27 26 26 26 26 25 24 22 22 21 22 24 24 22 22 25 27
4 5 6 6 4 5 8 26 16 14 14 7 26 13 14 30 37 44 43 39 34 28 27 29 29 25 23 21 22 23 24 24 24 24 23 23 23 22 21 20 21 20 21 23 21 20 20 22 24
6 8 4 4 5 4 13 16 11 18 10 14 21 9 13 42 46 48 46 41 34 32 28 27 30 28 24 24 20 19 19 20 20 20 19 20 18 18 18 17 17 18 17 20 18 17 17 18 19
18 5 5 7 8 5 17 12 12 12 17 18 18 7 16 46 51 52 53 48 44 38 35 30 29 30 27 23 22 19 17 16 16 16 16 16 16 15 14 15 15 14 15 14 13 12 12 14 16
9 8 15 10 8 6 17 13 24 12 14 13 19 16 23 51 57 59 62 58 53 48 41 37 30 29 29 25 21 19 17 14 13 13 13 14 14 13 12 11 12 11 11 10 8 8 10 10 12
8 11 9 7 13 8 6 14 21 20 6 30 39 33 39 57 58 59 60 59 54 50 45 39 36 30 28 27 23 20 18 14 12 10 10 11 11 12 12 11 10 9 8 6 5 6 8 8 8
7 11 8 4 9 2 3 3 16 32 26 20 29 33 43 59 63 64 63 59 56 52 47 43 40 35 30 28 25 20 17 15 12 9 8 7 7 8 9 9 8 7 6 5 3 2 5 5 5
7 5 25 18 9 5 8 15 13 34 37 13 33 35 45 55 62 63 62 57 56 56 51 46 42 39 34 30 28 24 20 17 15 13 10 8 6 6 6 6 6 5 4 3 3 2 3 3 4
18 10 3 5 10 11 7 4 4 16 39 26 32 41 48 52 58 62 64 61 59 56 53 48 45 40 37 34 30 27 24 21 20 18 16 14 12 10 7 6 5 4 3 3 4 3 4 4 4
11 7 7 6 3 5 7 5 11 27 25 31 34 42 49 56 58 58 58 60 56 51 48 48 44 42 41 37 33 31 28 27 26 23 22 20 19 17 14 12 9 9 8 7 6 6 6 6 6
8 9 3 2 17 2 10 11 23 22 21 33 36 44 50 55 56 56 53 56 54 49 46 45 45 42 41 39 37 35 34 33 32 31 30 28 25 25 25 19 14 15 14 14 13 12 10 10 10
12 7 9 7 11 10 10 7 7 15 27 36 41 45 50 53 58 56 53 52 52 50 48 48 46 44 41 39 38 36 35 35 34 35 35 33 29 28 22 19 18 20 19 18 18 16 15 12 13
13 8 2 6 5 1 5 13 15 13 30 39 36 43 52 57 58 52 51 50 50 52 49 49 49 45 43 40 40 41 41 38 33 34 35 33 31 26 27 26 24 24 22 21 20 19 18 18 19
14 8 8 3 6 2 10 13 22 26 20 31 44 45 54 61 55 54 52 50 51 54 57 57 56 52 50 49 48 47 48 43 41 41 35 33 34 35 33 30 29 29 26 23 22 19 18 19 20
9 8 3 8 2 6 8 17 20 18 22 46 45 53 56 62 60 59 57 55 56 52 59 60 60 58 57 55 51 49 44 45 44 43 40 30 40 38 38 38 37 37 36 33 30 29 26 26 28
6 9 8 7 4 2 7 22 18 15 27 57 52 48 53 66 66 66 63 61 59 57 60 60 61 60 59 58 57 57 58 57 54 51 44 44 39 35 38 44 44 44 43 40 35 34 33 33 32
12 11 10 8 6 8 1 14 13 20 28 18 55 62 62 55 70 70 65 64 65 62 57 60 60 61 62 59 62 61 62 60 55 50 47 44 31 31 30 38 44 45 45 43 41 37 39 42 44
11 14 11 8 6 1 2 6 13 13 27 25 45 61 64 69 60 73 72 66 65 60 61 63 65 65 66 65 66 63 62 58 51 46 43 43 39 37 34 38 39 42 43 42 42 43 46 45 40
21 14 11 8 5 9 14 13 11 14 20 14 27 64 71 69 65 64 68 69 67 65 65 65 70 70 71 70 69 70 67 62 57 52 49 43 43 42 40 36 37 37 41 44 43 41 41 35 34
8 15 4 2 2 16 8 11 38 15 11 17 29 62 70 71 68 71 74 76 72 74 71 65 66 68 68 72 72 69 68 67 60 57 54 47 47 50 40 43 38 35 35 39 38 37 35 34 33
11 13 10 14 9 6 3 17 13 20 42 49 47 38 35 48 54 64 72 77 79 73 70 64 63 63 64 65 67 67 65 65 65 61 56 50 52 48 38 40 34 33 32 31 31 29 29 29 28
12 22 15 8 5 5 10 15 19 18 21 25 39 53 53 42 39 40 48 56 59 72 69 64 59 58 58 58 59 59 61 63 64 59 53 52 53 51 45 34 36 33 33 31 30 31 31 27 24
18 19 8 3 5 8 9 11 14 10 15 21 18 30 43 50 47 39 35 36 41 51 57 57 56 53 52 54 56 57 59 60 60 57 56 51 50 50 47 37 37 33 33 31 34 37 34 26 27
10 14 6 12 10 9 2 11 15 17 9 12 20 29 30 28 39 43 34 32 39 46 49 49 47 47 50 53 54 55 55 54 53 50 46 40 44 44 42 35 36 34 34 34 36 39 21 22 26
11 16 16 10 4 3 6 15 10 7 4 13 28 28 26 25 28 33 34 34 35 38 40 38 40 43 47 48 48 45 43 41 42 43 42 43 42 41 36 35 33 33 32 29 28 24 23 24 22
Wind_Direction_850mb
326 333 339 351 55 63 99 199 317 127 145 192 141 143 156 94 161 169 146 156 153 146 140 139 123 100 101 102 106 97 98 111 127 136 137 128 104 91 92 97 100 90 90 92 88 84 77 72 69
320 327 332 67 84 74 273 237 189 190 127 123 111 112 85 112 137 145 148 154 151 144 141 140 126 107 106 108 109 113 96 96 101 105 128 131 122 106 100 92 81 94 89 91 82 75 75 71 68
316 327 343 86 108 150 191 192 156 136 135 158 118 99 103 127 140 146 150 147 146 147 145 140 129 115 112 109 112 103 89 90 94 97 100 109 127 130 124 116 103 95 94 96 87 86 81 70 64
317 317 57 80 151 200 191 177 147 147 223 168 134 82 100 147 141 152 151 146 143 148 148 143 135 123 115 109 105 95 90 89 91 96 101 103 102 103 105 107 108 108 104 100 92 80 71 62 59
287 41 59 79 262 242 230 196 155 152 136 141 198 134 111 139 147 161 156 150 148 152 156 146 144 132 121 111 105 100 97 94 94 96 97 93 92 93 95 96 99 107 100 102 94 86 73 66 61
70 82 69 177 253 250 263 166 153 140 145 149 133 119 144 159 158 161 162 153 153 158 161 152 150 139 130 120 112 106 100 96 92 93 96 95 94 92 94 97 103 104 99 106 98 90 77 70 65
85 70 177 172 261 297 171 166 167 150 151 166 149 123 166 172 162 165 165 159 159 165 170 164 155 152 143 131 118 113 107 99 95 93 95 94 93 94 96 100 109 110 102 106 96 83 74 69 65
292 83 94 230 232 262 154 167 193 157 177 153 169 170 178 175 166 168 170 168 169 171 175 175 166 163 158 147 137 125 115 105 99 96 93 93 94 98 98 97 100 102 101 102 96 85 76 72 68
188 94 224 220 175 227 164 170 170 165 152 164 190 179 175 174 169 173 176 181 176 181 178 182 180 172 169 164 154 145 134 121 108 102 102 100 96 98 101 106 109 109 108 103 93 79 70 67 66
146 160 204 207 203 241 179 191 167 155 163 193 194 184 172 178 179 182 185 186 184 183 183 182 188 183 178 176 173 162 155 142 126 113 110 105 98 99 109 113 114 118 121 118 104 71 48 49 57
158 175 191 225 221 202 231 187 178 153 211 208 203 190 177 183 188 192 195 195 192 185 185 188 186 192 189 186 187 183 173 165 152 134 119 117 107 99 110 121 126 126 134 127 99 61 37 39 43
127 226 171 338 207 155 230 271 192 197 217 227 221 209 186 190 197 200 201 201 198 196 191 191 191 192 197 196 196 198 193 185 179 169 154 138 130 115 106 113 123 132 141 149 142 49 15 20 31
151 200 212 229 232 248 278 256 260 230 218 219 204 211 206 200 204 205 207 205 203 202 199 198 199 197 199 205 205 206 209 206 205 204 201 201 192 171 150 128 120 126 143 170 204 240 322 343 352
186 197 185 206 259 244 218 293 144 270 222 212 206 213 213 211 212 208 208 209 208 206 205 204 205 207 207 210 215 217 218 219 224 225 224 225 228 227 221 204 185 188 196 211 231 252 291 315 314
163 175 13 226 201 241 186 299 227 260 223 210 203 209 214 214 214 216 215 214 214 212 212 211 212 214 216 218 221 226 230 232 232 235 239 240 242 242 243 242 239 243 250 255 263 272 286 299 304
122 82 202 220 170 175 152 259 265 238 232 229 213 211 216 218 221 218 219 219 220 217 217 217 218 220 223 225 228 231 234 239 241 241 242 243 244 247 248 246 250 260 262 266 270 274 282 290 295
12 165 195 291 217 131 159 239 254 213 219 238 232 222 219 220 221 220 223 222 222 222 219 222 221 225 227 228 230 233 235 240 241 243 246 246 244 254 245 253 261 265 262 268 271 275 282 292 299
176 166 84 214 227 142 195 240 265 225 217 234 243 233 225 225 225 223 224 228 227 227 226 227 229 228 229 230 233 233 231 234 238 243 244 244 252 248 247 253 260 265 269 270 278 285 285 292 295
128 115 142 234 5 149 234 249 250 240 245 240 243 240 234 232 230 227 226 228 231 229 226 226 229 228 228 228 229 232 235 233 236 239 241 241 241 246 252 256 255 263 271 276 270 273 279 288 291
103 121 220 298 154 175 318 265 256 250 238 243 248 241 242 238 231 229 227 228 230 230 231 229 230 231 232 234 233 238 244 244 242 244 246 250 246 249 253 255 259 263 268 269 274 274 277 278 283
101 139 158 223 329 258 306 270 244 259 239 249 246 252 244 248 240 233 229 229 232 232 232 232 232 231 230 233 236 239 244 245 243 243 243 248 248 246 247 258 259 262 263 265 267 267 270 272 272
163 173 129 149 139 235 72 281 258 239 237 216 240 242 245 247 248 243 238 232 232 235 236 236 235 233 232 231 236 238 244 246 248 248 247 251 255 250 251 243 257 260 262 263 264 266 267 269 270
185 148 127 112 123 103 276 305 258 235 235 238 230 233 246 244 245 246 242 237 238 239 237 237 235 235 234 232 236 240 242 244 245 250 248 244 248 251 253 248 248 251 257 259 259 259 264 267 270
145 104 67 73 80 265 202 193 241 211 222 230 232 237 237 245 247 249 250 247 243 239 237 235 232 233 235 235 237 242 244 245 243 242 244 239 251 257 262 264 256 247 254 258 260 260 266 270 273
152 142 58 241 212 234 300 214 253 260 253 219 222 236 233 234 240 248 251 249 245 243 239 235 232 230 232 235 237 241 243 246 247 248 246 244 249 252 256 262 261 260 253 255 258 260 266 271 275
178 166 160 188 198 240 94 229 252 245 260 251 259 253 240 237 243 245 249 251 246 240 238 237 231 228 230 233 236 239 240 245 248 248 247 243 236 248 251 255 260 250 250 248 250 254 262 264 262
188 209 152 80 14 70 216 285 294 260 273 260 250 249 254 247 243 249 250 252 246 233 231 232 228 226 229 232 233 236 241 244 249 250 245 239 229 235 241 244 247 244 245 246 245 248 247 250 253
183 145 123 92 225 250 263 270 241 327 258 262 278 267 266 261 252 250 248 239 228 221 221 222 222 225 228 230 232 236 242 247 251 249 242 227 226 230 240 234 246 241 242 243 250 247 244 241 249
125 182 185 148 179 185 290 260 216 248 358 315 293 287 279 257 246 241 231 216 214 215 215 217 219 223 227 233 237 241 246 247 244 237 225 218 220 225 221 235 240 241 245 243 248 221 231 244 241
188 173 177 174 215 223 132 257 207 190 277 284 285 297 284 251 236 220 209 200 205 213 216 219 223 227 232 237 242 244 237 229 223 217 207 208 215 208 228 229 234 238 229 226 224 244 244 241 236